Location: Newark
(49.8969°N, 3.3422°E)
Time: 10:49:41
(UTC+00:00)

A-11 Canister half - Pass Details

Date: 04 February 2020
Orbit: 1517 x 1683 km, 47.2° (Epoch: 25 February)

Event Time Altitude Azimuth Distance (km) Brightness Sun altitude
Rises 03:09:49 0° 288° (WNW) 4,694 - -39.4°
Reaches altitude 10° 03:13:13 10° 280° (W) 3,696 - -38.9°
Maximum altitude 03:21:11 34° 220° (SW) 2,307 - -37.7°
Exits shadow 03:27:21 16° 167° (SSE) 3,210 10.6 -36.8°
Drops below altitude 10° 03:29:08 10° 160° (SSE) 3,680 11.0 -36.5°
Sets 03:32:31 0° 152° (SSE) 4,671 11.6 -36.0°
